Tracking 35237 objects as of 4-Sep-2026
HD Live streaming from Space Station
objects crossing your sky now

STARLINK-31382

Track STARLINK-31382 now!
10-day predictions
STARLINK-31382 is classified as:


NORAD ID: 59184
Int'l Code: 2024-045G
Launch date: March 10, 2024
Source: United States (US)
Launch site: AIR FORCE EASTERN TEST RANGE (AFETR)
Your satellite tracking list
Your tracking list is empty




NASA's NSSDC Master Catalog

Two Line Element Set (TLE):
1 59184U 24045G   26246.98631129  .00001064  00000-0  48175-4 0  9991
2 59184  43.0018 165.2650 0001350 260.7342  99.3357 15.27579891140435
Source of the keplerian elements: AFSPC